Weather History for KCWA - May, 2014

Change the Weather History Date:

Sunday, May 18, 2014

  Actual Average Record
Temperature  
Mean Temperature 54 °F -  
Max Temperature 69 °F 62 °F 84 °F (1998)
Min Temperature 39 °F 40 °F 28 °F (2002)
Degree Days  
Heating Degree Days 11    
Growing Degree Days 4 (Base 50)    
Moisture  
Dew Point 35 °F    
Average Humidity 59    
Maximum Humidity 81    
Minimum Humidity 27    
Precipitation  
Precipitation 0.00 in - - ()
Sea Level Pressure  
Sea Level Pressure 30.08 in    
Wind  
Wind Speed 7 mph (SSW)    
Max Wind Speed 15 mph    
Max Gust Speed 23 mph    
Visibility 10 miles    
Events      
Averages and records for this station are not official NWS values.
T = Trace of Precipitation, MM = Missing Value Source: NWS Daily Summary

Daily Weather History Graph

Daily Weather History Graph

Search for Another Location

Airport or City:

Trip Planner

Search our weather history database for the weather conditions in past years. The results will help you decide how hot, cold, wet, or windy it might be!

Date:

Astronomy

May. 18, 2014 Rise Set
Actual Time 5:27 AM CDT 8:23 PM CDT
Civil Twilight 4:52 AM CDT 8:58 PM CDT
Nautical Twilight 4:08 AM CDT 9:42 PM CDT
Astronomical Twilight 3:16 AM CDT 10:34 PM CDT
Moon No Moon Rise 9:17 AM CDT (5/18)
Length of Visible Light 16h 05m
Length of Day
14h 56m
Waning Gibbous, 81% of the Moon is Illuminated
May 18
Waning Gibbous
May 21
Last Quarter
May 28
New
Jun 5
First Quarter
Jun 12
Full

Hourly Weather History & Observations

Time (CDT) Temp. Windchill Dew Point Humidity Pressure Visibility Wind Dir Wind Speed Gust Speed Precip Events Conditions
12:15 AM 42.8 °F 38.6 °F 32.0 °F 66% 30.05 in 10.0 mi SW 6.9 mph - N/A   Clear
12:35 AM 42.8 °F 38.0 °F 32.0 °F 66% 30.05 in 10.0 mi SW 8.1 mph - N/A   Clear
12:55 AM 42.8 °F 38.6 °F 33.8 °F 70% 30.05 in 10.0 mi SSW 6.9 mph - N/A   Clear
1:15 AM 42.8 °F 38.0 °F 33.8 °F 70% 30.05 in 10.0 mi SSW 8.1 mph - N/A   Clear
1:35 AM 41.0 °F 36.4 °F 33.8 °F 76% 30.06 in 10.0 mi SSW 6.9 mph - N/A   Clear
1:55 AM 41.0 °F 36.4 °F 33.8 °F 76% 30.06 in 10.0 mi SSW 6.9 mph - N/A   Clear
2:15 AM 41.0 °F 36.4 °F 33.8 °F 76% 30.06 in 10.0 mi SSW 6.9 mph - N/A   Clear
2:35 AM 41.0 °F 35.8 °F 33.8 °F 76% 30.06 in 10.0 mi SSW 8.1 mph - N/A   Scattered Clouds
2:55 AM 41.0 °F 36.4 °F 33.8 °F 76% 30.06 in 10.0 mi South 6.9 mph - N/A   Scattered Clouds
3:15 AM 39.2 °F 33.6 °F 33.8 °F 81% 30.06 in 10.0 mi South 8.1 mph - N/A   Clear
3:35 AM 39.2 °F 33.6 °F 33.8 °F 81% 30.06 in 10.0 mi SSW 8.1 mph - N/A   Scattered Clouds
3:55 AM 42.8 °F 38.0 °F 35.6 °F 76% 30.07 in 10.0 mi SSW 8.1 mph - N/A   Mostly Cloudy
4:15 AM 41.0 °F 35.8 °F 35.6 °F 81% 30.06 in 10.0 mi South 8.1 mph - N/A   Scattered Clouds
4:35 AM 42.8 °F 38.6 °F 37.4 °F 81% 30.07 in 10.0 mi South 6.9 mph - N/A   Mostly Cloudy
4:55 AM 42.8 °F 37.5 °F 37.4 °F 81% 30.07 in 10.0 mi South 9.2 mph - N/A   Mostly Cloudy
5:15 AM 42.8 °F 39.3 °F 37.4 °F 81% 30.07 in 10.0 mi SSW 5.8 mph - N/A   Mostly Cloudy
5:35 AM 42.8 °F - 37.4 °F 81% 30.09 in 10.0 mi Calm Calm - N/A   Overcast
5:45 AM 44.6 °F - 39.2 °F 81% 30.09 in 10.0 mi Calm Calm - N/A   Mostly Cloudy
6:45 AM 46.4 °F 42.9 °F 39.2 °F 76% 30.09 in 10.0 mi SSW 6.9 mph - N/A   Mostly Cloudy
7:50 AM 50.0 °F - 39.2 °F 66% 30.10 in 10.0 mi SW 5.8 mph - N/A   Scattered Clouds
8:45 AM 55.4 °F - 39.2 °F 54% 30.11 in 10.0 mi SW 8.1 mph - N/A   Partly Cloudy
9:45 AM 60.8 °F - 37.4 °F 42% 30.11 in 10.0 mi WSW 8.1 mph - N/A   Clear
10:50 AM 62.6 °F - 39.2 °F 42% 30.11 in 10.0 mi SW 8.1 mph - N/A   Clear
11:45 AM 66.2 °F - 37.4 °F 35% 30.10 in 10.0 mi SW 8.1 mph - N/A   Clear
12:45 PM 69.8 °F - 35.6 °F 28% 30.09 in 10.0 mi WSW 15.0 mph 23.0 mph N/A   Scattered Clouds
2:45 PM 69.8 °F - 33.8 °F 27% 30.08 in 10.0 mi West 13.8 mph 19.6 mph N/A   Scattered Clouds
3:55 PM 69.8 °F - 33.8 °F 27% 30.07 in 10.0 mi West 12.7 mph 20.7 mph N/A   Scattered Clouds
4:47 PM 69.8 °F - 33.8 °F 27% 30.07 in 10.0 mi WSW 11.5 mph 16.1 mph N/A   Scattered Clouds
5:45 PM 69.8 °F - 33.8 °F 27% 30.07 in 10.0 mi WSW 11.5 mph 19.6 mph N/A   Scattered Clouds
6:55 PM 62.6 °F - 35.6 °F 37% 30.07 in 10.0 mi SW 9.2 mph - N/A   Clear
7:47 PM 60.8 °F - 35.6 °F 39% 30.07 in 10.0 mi SW 5.8 mph - N/A   Clear
8:55 PM 57.2 °F - 33.8 °F 41% 30.08 in 10.0 mi SW 5.8 mph - N/A   Clear
10:15 PM 53.6 °F - 33.8 °F 47% 30.10 in 10.0 mi South 5.8 mph - N/A   Clear
10:35 PM 53.6 °F - 32.0 °F 44% 30.10 in 10.0 mi South 4.6 mph - N/A   Clear
10:55 PM 51.8 °F - 33.8 °F 50% 30.10 in 10.0 mi South 4.6 mph - N/A   Clear
11:15 PM 51.8 °F - 33.8 °F 50% 30.11 in 10.0 mi SSE 5.8 mph - N/A   Clear
11:35 PM 51.8 °F - 33.8 °F 50% 30.11 in 10.0 mi South 4.6 mph - N/A   Clear
11:55 PM 51.8 °F - 33.8 °F 50% 30.11 in 10.0 mi South 3.5 mph - N/A   Clear